sat.trackr.live / text

‹ back to catalog

COSMOS 2546

NORAD 45608 · 2020-031A

PAYLOAD ACTIVE UNKNOWN

§ Identity

Operator
Country
CIS
Launch date
2020-05-22
Launch site
PLMSC
Launch vehicle
Mass (kg)
RCS (m²)

External: N2YO · Heavens-Above · Gunter

§ Orbital elements

Epoch: 2026-05-24T02:13:34.730112Z

Period
717.80 min
Inclination
63.1556°
Eccentricity
0.7074720
Mean motion
2.00612849 rev/d
Perigee alt
1,390.2 km
Apogee alt
38,965.5 km
Semi-major
26,556.0 km
B*
0.0000e+0
RAAN
69.7306°
Arg perigee
266.1751°
Mean anomaly
17.7627°
Rev number
4,398

§ Raw data

COSMOS 25461 45608U 20031A   26144.09276308 -.00000089  00000+0  00000+0 0  99972 45608  63.1556  69.7306 7074720 266.1751  17.7627  2.00612849 43983

JSON: /api/v1/satellites/45608 · /tle

For live sub-satellite position, see the globe view (requires WebGL).

§ Visibility from observer

Set your observer location to see the next 7 days of passes ≥ 10°. The values pass through the URL so the page stays shareable.

No JS? Fill the form by hand. The geolocation button needs JavaScript.